{"data":{"norad_id":58294,"intl_designator":"2023-174AQ","name":"ICEYE-X34","alt_names":[],"object_type":"PAYLOAD","status":"ACTIVE","operator":null,"country":"US","launch_date":"2023-11-11","launch_site_code":"AFWTR","launch_vehicle":null,"mission":null,"orbit_class":"UNKNOWN","rcs_meters":null,"size_class":null,"mass_kg":null,"dimensions":null,"purposes":[],"wikipedia_slug":null,"has_3d_model":false,"image_url":null,"decayed_at":null,"tle_current":{"epoch":"2026-05-25T04:38:47.477184Z","epoch_age_seconds":61459,"freshness":"FRESH","line1":"1 58294U 23174AQ  26145.19360506  .00069137  00000+0  81092-3 0  9991","line2":"2 58294  97.3878 235.3454 0005596 213.3970 146.6935 15.61264066142152","mean_motion":15.61264066,"eccentricity":0.0005596,"inclination_deg":97.3878,"raan_deg":235.3454,"arg_perigee_deg":213.397,"mean_anomaly_deg":146.6935,"bstar":0.00081092,"rev_number":14215,"period_min":92.232956061643,"perigee_km":380.22057627934,"apogee_km":387.78876523725,"semimajor_km":6762.1416707583,"source":"CELESTRAK","updated_at":"2026-05-25T13:38:00.645445Z"}}}